Tracking 29892 objects as of 21-Nov-2024
HD Live streaming from Space Station
objects crossing your sky now

SL-12 R/B(2)

Track SL-12 R/B(2) now!


NORAD ID: 23330
Int'l Code: 1994-069D
Perigee: 35,731.8 km
Apogee: 35,932.0 km
Inclination: 14.7 °
Period: 1,438.0 minutes
Semi major axis: 42202 km
RCS: 2.5118 m2 (large)
Launch date: October 31, 1994
Source: Commonwealth of Independent States (former USSR) (CIS)
Launch site: TYURATAM MISSILE AND SPACE COMPLEX (TTMTR)

Note: This is a ROCKET BODY
Your satellite tracking list
Your tracking list is empty




NASA's NSSDC Master Catalog

Two Line Element Set (TLE):
1 23330U 94069D   24325.33155111  .00000019  00000-0  00000-0 0  9995
2 23330  14.6766 353.7352 0023718 143.0319 225.7496  1.00135818109915
Source of the keplerian elements: AFSPC